Wetbulb
65.78 65.13 65.52 65.44 66.27 67.73 68.26 68.76 69.34 70.12 71.12 71.96 72.71 73.12 73.34 73.81 74.81 74.67 75.05 75.90 73.80 73.63 73.85 73.69 74.55 74.55 74.33 73.71 73.29 74.06 75.13 74.15 73.18 72.07 71.40 71.05 69.51 68.81 67.76 67.13 66.45 65.59 65.03
66.65 65.03 64.68 64.20 63.89 64.06 63.89 63.88 64.73 66.56 67.97 69.90 70.80 72.26 72.87 73.49 74.00 74.27 74.93 75.12 74.08 73.19 73.44 73.09 74.18 74.75 74.88 74.43 73.86 73.83 74.78 74.31 73.63 72.51 71.47 71.29 70.08 68.90 68.81 67.86 66.65 65.73 65.45
66.62 66.66 64.70 64.27 64.19 64.62 64.56 63.67 63.12 63.08 63.07 65.53 68.56 70.24 71.40 73.04 73.64 74.14 74.61 74.99 74.98 73.36 73.28 73.21 73.39 74.41 74.75 74.95 74.80 74.38 74.64 74.38 73.79 72.94 71.65 71.16 70.60 69.08 69.09 69.00 67.96 66.75 66.82
66.10 66.11 64.51 64.34 65.08 64.87 63.70 62.91 62.33 61.13 60.96 61.07 62.73 65.56 68.81 70.63 72.21 73.46 73.83 74.75 75.16 74.52 73.82 72.95 73.00 73.46 74.01 74.68 75.08 75.13 74.51 74.23 73.79 73.01 72.02 71.36 71.15 69.65 68.93 69.14 69.05 68.41 67.75
65.43 65.62 64.72 64.58 65.54 64.29 63.31 62.19 61.28 61.15 60.08 60.66 60.52 62.13 64.50 67.43 69.83 71.07 72.81 73.72 74.61 74.79 74.27 73.99 72.62 72.50 72.78 73.68 74.71 75.13 74.78 74.27 73.31 73.00 72.46 71.87 71.66 70.34 69.48 69.08 68.96 68.72 68.32
65.88 65.60 64.86 64.76 64.70 62.82 61.72 61.25 62.45 60.97 60.32 60.25 59.97 60.26 61.58 63.29 66.25 69.16 70.58 72.46 73.42 74.10 74.30 74.16 74.58 73.45 72.00 72.76 73.66 74.63 75.41 75.16 73.97 73.27 72.53 71.88 71.52 71.22 69.89 69.16 68.68 68.60 68.27
65.79 65.61 63.89 62.87 63.28 62.25 62.56 61.58 60.09 59.85 59.01 60.69 58.86 59.24 59.95 63.02 65.04 65.90 68.41 69.60 71.49 72.85 73.39 73.55 73.86 73.66 73.26 72.03 72.64 74.02 75.38 75.47 75.21 74.04 72.38 71.48 71.29 71.43 70.25 69.26 68.85 68.27 68.18
64.64 63.10 62.42 61.17 60.91 59.33 60.39 59.94 59.95 57.83 58.53 60.12 57.24 57.33 55.18 57.69 60.60 63.84 66.44 68.64 70.63 70.96 71.35 72.23 73.03 74.08 74.30 73.21 74.59 72.87 74.45 75.13 75.21 74.90 73.14 71.40 71.30 71.49 70.72 69.40 69.09 68.72 68.23
61.59 60.86 59.87 59.09 58.64 58.14 57.13 58.38 58.73 58.40 56.49 58.86 60.44 57.35 54.96 54.19 57.33 61.56 67.20 66.17 70.37 69.40 70.58 71.79 72.55 73.40 75.69 74.15 73.12 73.84 73.13 73.37 74.63 74.80 74.48 72.22 71.76 71.64 70.70 69.74 69.37 69.07 68.65
59.18 58.49 57.94 57.55 57.41 56.71 56.35 55.51 55.74 55.20 55.60 53.85 58.25 59.80 61.36 59.79 56.18 56.55 61.50 65.20 69.19 69.69 72.23 70.76 71.40 72.44 73.66 73.53 73.31 72.60 72.03 71.96 72.61 73.22 73.41 73.59 72.46 72.00 71.24 69.97 69.43 69.22 69.45
57.47 56.49 56.36 56.07 54.99 53.76 53.73 53.02 52.26 51.74 51.47 51.59 52.80 55.86 58.96 59.27 60.54 57.45 56.05 59.27 63.85 67.92 69.16 70.92 71.49 72.05 73.52 73.82 73.78 72.27 69.50 69.25 69.46 70.65 71.20 72.37 72.63 72.18 71.46 70.17 69.39 69.87 69.90
53.64 54.44 54.40 52.67 51.89 52.16 51.96 52.26 51.67 51.98 51.61 51.45 52.17 53.54 55.13 55.83 57.03 57.27 56.97 59.33 60.51 63.81 67.34 68.52 69.90 71.34 71.93 72.98 72.90 68.56 67.52 67.23 66.83 66.89 67.67 69.52 71.25 71.46 71.19 70.51 70.29 69.99 70.16
49.36 50.80 50.72 50.05 50.16 51.08 51.40 51.37 51.02 50.52 50.77 50.02 49.31 50.62 53.50 54.61 56.61 57.65 57.50 57.79 59.29 61.57 63.02 67.27 71.03 70.34 70.78 72.61 71.87 67.89 67.05 65.33 64.38 63.68 64.15 65.63 66.65 68.47 68.87 69.05 68.76 68.78 68.47
47.75 49.60 49.21 49.32 49.56 49.59 49.62 49.32 49.15 49.02 49.87 49.54 50.20 50.38 51.13 51.36 52.96 54.18 55.89 56.86 56.29 59.30 62.21 65.17 68.37 70.40 71.83 71.06 71.28 65.73 69.36 64.31 62.53 61.49 62.05 62.78 63.60 64.13 64.38 64.05 63.10 62.49 61.96
47.62 48.30 48.46 47.74 47.99 47.99 47.91 47.58 47.15 47.60 48.55 48.92 49.34 50.89 50.81 50.87 52.36 55.16 57.77 58.49 57.61 55.99 58.44 63.09 66.06 70.06 69.97 69.23 68.91 69.61 68.55 62.34 61.91 60.59 60.17 60.38 60.75 60.58 60.10 59.34 58.75 58.20 58.21
47.31 46.86 47.59 48.04 47.71 47.37 47.07 47.04 46.78 47.44 47.20 47.72 48.33 49.63 50.23 50.78 52.49 54.29 54.82 57.96 57.79 58.11 57.57 62.98 66.86 67.33 66.01 65.22 66.86 67.79 66.88 62.34 60.68 59.90 59.57 58.58 57.93 57.81 57.43 57.05 56.80 56.69 56.64
46.81 45.92 46.55 47.14 46.16 45.82 46.22 46.17 46.59 47.12 47.11 47.53 48.74 49.41 49.96 51.64 52.59 52.67 54.52 56.22 55.55 56.28 59.46 61.96 66.51 65.23 63.52 63.08 63.07 62.80 63.70 64.17 59.25 58.05 57.68 56.96 56.79 56.18 55.88 55.66 55.44 55.94 55.70
45.90 46.28 45.75 45.43 45.49 45.70 45.64 45.96 45.94 46.85 47.25 47.23 48.44 49.21 49.89 52.39 52.90 53.94 53.14 55.06 57.28 59.79 61.01 60.27 63.77 61.62 60.77 59.63 58.61 58.47 58.66 58.40 58.47 57.46 57.30 56.19 55.62 54.90 54.64 54.00 53.96 54.45 54.45
45.43 45.97 45.89 44.97 45.15 45.69 46.38 46.40 46.70 46.66 47.55 48.10 48.42 49.35 50.50 51.86 52.53 53.72 54.46 56.30 58.52 59.88 61.10 60.52 60.46 60.66 56.66 55.34 53.36 54.45 54.37 55.84 54.76 55.26 54.88 54.90 54.56 54.06 53.81 53.37 52.76 52.61 52.09
45.84 45.22 45.38 45.13 45.11 45.80 46.26 46.77 46.86 46.82 48.04 48.91 49.41 50.35 51.13 52.00 53.06 54.01 54.79 57.15 59.97 60.17 60.36 61.08 59.84 58.36 55.84 53.77 53.15 50.91 50.83 53.36 53.53 54.77 54.33 53.90 54.01 54.51 54.56 53.76 53.29 52.65 51.40
45.15 45.04 44.72 44.38 44.81 45.29 46.34 46.48 48.48 47.73 47.74 49.37 50.36 51.12 52.23 53.50 54.51 55.11 55.44 56.73 59.24 60.03 59.26 57.58 56.72 54.84 52.43 50.99 50.00 51.75 50.23 50.44 50.51 52.51 52.47 53.30 53.94 54.73 55.49 54.58 55.15 54.17 51.18
44.39 44.12 43.79 44.17 43.53 44.53 44.90 46.82 49.32 49.04 50.35 51.29 51.74 52.36 53.62 53.86 55.57 54.34 54.37 54.61 54.36 56.42 59.31 58.52 56.62 54.38 51.77 51.32 50.92 50.47 48.97 47.87 46.97 52.60 51.79 50.31 51.76 52.15 53.12 54.35 53.05 53.61 51.23
43.42 42.95 43.76 43.55 43.64 44.79 44.23 44.68 47.31 47.81 47.54 47.52 47.58 48.19 49.25 50.01 51.15 51.24 50.43 50.26 50.00 50.15 50.93 56.52 52.68 51.01 49.60 50.19 49.90 48.97 47.80 48.70 48.64 49.71 51.59 50.75 53.36 53.48 55.50 52.95 50.12 51.15 50.56
42.82 43.15 43.45 43.63 44.14 44.81 43.82 43.91 46.07 48.01 47.27 47.06 47.20 47.38 47.63 47.60 47.83 48.65 48.34 48.15 47.66 47.51 49.59 50.35 50.77 50.43 51.22 50.25 51.35 51.23 49.38 49.83 51.80 53.61 56.19 49.58 54.02 52.89 54.96 54.37 48.56 48.59 48.27
42.67 42.85 43.31 43.08 43.21 44.32 42.43 43.21 46.05 47.18 48.20 47.36 47.65 47.15 48.03 47.29 44.92 45.61 47.44 46.75 46.89 48.12 47.34 46.58 46.11 45.32 44.85 45.68 48.96 51.63 50.02 49.56 48.81 50.66 55.21 51.89 51.84 52.01 54.13 53.67 51.97 47.24 46.94
43.73 43.09 42.79 43.45 44.05 43.85 42.28 42.20 45.35 46.77 46.07 46.63 47.36 47.11 44.44 45.57 43.21 44.52 49.63 48.18 46.91 50.51 50.68 49.93 50.06 49.97 50.80 49.79 50.09 55.66 53.57 50.00 49.32 48.23 53.07 51.69 51.01 52.26 48.29 52.44 51.99 50.00 51.04
MSLP
1015.42 1014.94 1014.79 1014.39 1014.07 1013.57 1013.25 1012.88 1012.47 1012.15 1011.88 1011.34 1010.71 1010.25 1009.85 1009.49 1009.18 1008.95 1008.61 1008.80 1009.42 1009.88 1010.25 1010.51 1010.37 1010.21 1010.31 1010.48 1010.71 1011.06 1011.27 1011.63 1012.11 1012.51 1012.86 1013.21 1013.77 1014.09 1014.36 1014.72 1015.08 1015.46 1015.66
1015.64 1015.03 1014.59 1014.29 1013.96 1013.77 1013.53 1013.21 1012.63 1012.46 1011.81 1011.18 1010.51 1010.05 1009.63 1009.17 1008.75 1008.48 1008.09 1007.87 1008.41 1009.01 1009.37 1009.55 1009.64 1009.51 1009.59 1009.67 1009.85 1010.21 1010.55 1010.84 1011.19 1011.60 1012.04 1012.62 1012.96 1013.40 1013.74 1014.05 1014.30 1014.85 1015.20
1015.36 1015.39 1014.65 1014.28 1013.87 1013.95 1013.61 1012.99 1012.55 1012.10 1011.50 1010.78 1010.14 1009.84 1009.23 1008.61 1008.15 1007.93 1007.78 1007.41 1007.06 1007.78 1008.18 1008.49 1008.79 1008.77 1008.68 1008.91 1009.04 1009.25 1009.62 1010.05 1010.41 1010.90 1011.35 1011.90 1012.40 1012.69 1012.96 1013.27 1013.66 1014.08 1014.53
1015.10 1015.10 1014.49 1014.20 1013.98 1014.09 1013.33 1012.81 1012.35 1011.72 1011.19 1010.59 1009.89 1009.19 1008.48 1008.06 1007.46 1006.93 1007.03 1006.95 1006.82 1006.54 1006.92 1007.22 1007.61 1007.84 1007.99 1008.03 1008.23 1008.44 1008.71 1009.11 1009.58 1010.05 1010.51 1010.94 1011.44 1011.96 1012.28 1012.45 1012.89 1013.28 1013.47
1014.72 1014.76 1014.41 1013.99 1013.94 1013.65 1013.17 1012.73 1012.21 1011.78 1011.02 1010.46 1009.63 1008.86 1008.22 1007.48 1006.88 1006.39 1005.69 1005.75 1005.71 1005.86 1005.65 1005.54 1006.39 1006.73 1007.08 1007.22 1007.44 1007.45 1007.77 1008.11 1008.50 1008.94 1009.43 1009.95 1010.49 1011.01 1011.40 1011.76 1012.02 1012.33 1012.74
1014.63 1014.45 1014.09 1013.85 1013.65 1013.19 1012.67 1012.35 1012.19 1011.90 1011.31 1010.45 1009.30 1008.31 1007.89 1007.16 1006.42 1005.79 1005.24 1004.85 1004.53 1004.51 1004.69 1004.80 1004.97 1005.41 1005.81 1006.13 1006.41 1006.59 1006.88 1007.08 1007.56 1007.87 1008.25 1008.84 1009.30 1009.88 1010.45 1010.91 1011.07 1011.78 1012.31
1014.41 1014.28 1013.81 1013.45 1013.19 1012.80 1012.31 1012.39 1012.01 1011.35 1010.51 1009.84 1008.90 1007.79 1006.85 1006.21 1005.72 1005.22 1004.76 1004.15 1003.68 1003.52 1003.70 1003.78 1004.16 1003.99 1003.87 1004.81 1005.25 1005.74 1005.97 1006.11 1006.50 1006.95 1007.35 1007.94 1008.29 1008.83 1009.43 1009.74 1010.37 1010.96 1011.25
1014.02 1014.04 1013.73 1013.35 1013.02 1012.51 1012.11 1011.95 1011.69 1010.85 1010.02 1009.45 1008.49 1007.58 1006.14 1004.80 1003.95 1003.57 1003.37 1003.05 1002.87 1002.86 1002.60 1002.71 1003.09 1003.37 1003.33 1003.17 1003.86 1004.66 1004.99 1005.29 1005.63 1005.98 1006.48 1006.90 1007.23 1007.92 1008.38 1008.88 1009.50 1010.06 1010.70
1014.01 1013.95 1013.58 1013.27 1012.93 1012.65 1011.77 1011.40 1011.04 1010.50 1009.56 1008.87 1008.41 1007.53 1005.86 1003.93 1002.87 1002.07 1001.73 1001.66 1001.69 1001.64 1001.67 1001.73 1002.03 1002.51 1002.81 1003.07 1003.13 1003.62 1004.23 1004.61 1004.91 1005.19 1005.45 1005.91 1006.36 1006.96 1007.55 1008.13 1008.77 1009.31 1009.87
1013.81 1013.67 1013.23 1012.92 1012.66 1012.33 1011.97 1011.69 1011.45 1011.12 1010.59 1009.55 1008.33 1007.05 1006.32 1005.63 1004.46 1003.01 1001.55 1000.93 1000.91 1001.29 1001.27 1001.18 1001.40 1002.16 1002.49 1002.63 1002.73 1002.88 1003.32 1003.99 1004.34 1004.54 1004.74 1004.99 1005.45 1006.09 1006.71 1007.44 1008.02 1008.52 1008.94
1013.43 1013.30 1013.09 1012.68 1012.43 1012.22 1011.88 1011.79 1011.57 1011.37 1011.07 1010.37 1009.37 1008.09 1006.23 1004.84 1004.66 1004.25 1002.67 1001.59 1000.78 1000.34 1000.73 1001.20 1000.85 1001.31 1001.95 1002.06 1002.05 1002.43 1003.49 1003.98 1004.16 1004.13 1004.17 1004.21 1004.57 1005.22 1005.88 1006.55 1007.15 1007.59 1007.95
1013.78 1013.38 1012.88 1012.94 1012.68 1012.27 1011.67 1011.24 1010.99 1010.73 1010.54 1010.18 1009.54 1008.60 1007.29 1005.61 1004.05 1003.45 1002.87 1002.16 1001.35 1000.35 999.83 999.86 1000.37 1000.85 1000.97 1001.23 1002.24 1002.84 1003.31 1003.75 1004.13 1003.93 1003.93 1003.88 1004.02 1004.66 1005.25 1005.81 1006.41 1006.81 1007.07
1014.23 1013.52 1013.34 1012.97 1012.45 1011.94 1011.42 1010.93 1010.47 1010.09 1009.79 1009.35 1009.12 1008.46 1007.73 1006.92 1005.95 1004.25 1002.94 1001.94 1001.31 1000.82 1000.28 1000.06 1000.43 1000.54 1000.99 1001.24 1001.63 1002.39 1003.21 1003.72 1003.92 1004.26 1003.94 1004.17 1004.31 1004.61 1004.99 1005.38 1005.85 1006.21 1006.63
1014.18 1013.67 1013.11 1012.63 1012.09 1011.54 1011.00 1010.56 1009.92 1009.42 1009.05 1008.77 1008.32 1007.91 1007.35 1007.03 1006.57 1005.79 1004.28 1002.77 1001.92 1000.99 1000.19 1000.95 1001.25 1001.23 1001.47 1001.50 1001.87 1002.45 1002.38 1003.16 1003.74 1004.15 1003.82 1004.21 1004.61 1005.03 1005.45 1005.87 1006.52 1007.03 1007.67
1014.09 1013.38 1012.81 1012.06 1011.40 1010.78 1010.24 1009.77 1009.16 1008.61 1008.25 1007.85 1007.49 1007.08 1006.87 1006.68 1006.44 1005.99 1004.90 1004.04 1002.68 1002.17 1000.57 1000.77 1001.29 1001.34 1001.62 1001.92 1001.89 1002.10 1002.22 1003.43 1003.91 1004.17 1004.23 1004.79 1004.84 1005.63 1006.04 1006.44 1007.05 1007.58 1007.96
1013.80 1013.03 1012.18 1011.42 1010.63 1009.97 1009.44 1008.83 1008.15 1007.64 1007.32 1006.93 1006.71 1006.40 1006.15 1006.00 1005.73 1005.28 1004.97 1004.16 1004.17 1003.59 1002.10 1000.27 1001.18 1001.60 1002.24 1002.39 1002.29 1002.27 1002.57 1003.57 1004.02 1004.38 1004.83 1005.23 1005.48 1006.11 1006.49 1006.90 1007.30 1007.75 1007.96
1013.24 1012.49 1011.66 1010.76 1010.02 1009.21 1008.57 1007.97 1007.31 1006.83 1006.41 1006.15 1005.92 1005.69 1005.38 1005.23 1004.91 1004.62 1004.13 1003.57 1003.34 1003.36 1001.90 1001.37 1001.49 1001.82 1002.29 1002.61 1002.86 1003.00 1003.14 1003.35 1004.35 1004.70 1005.12 1005.49 1006.11 1006.64 1006.81 1007.10 1007.43 1007.95 1008.36
1012.87 1012.04 1011.19 1010.29 1009.38 1008.50 1007.80 1007.11 1006.37 1005.89 1005.45 1005.08 1004.95 1004.89 1004.59 1004.37 1004.19 1004.01 1003.78 1003.12 1002.16 1002.11 1001.99 1001.53 1001.52 1002.09 1002.59 1003.07 1003.37 1003.55 1003.77 1004.03 1004.54 1005.17 1005.71 1006.01 1006.44 1006.75 1006.97 1007.18 1007.47 1008.05 1008.29
1012.54 1011.63 1010.71 1009.78 1008.81 1007.86 1006.87 1006.07 1005.40 1004.89 1004.48 1004.17 1004.15 1004.07 1003.85 1003.71 1003.43 1003.26 1003.01 1002.29 1001.65 1001.43 1001.53 1001.75 1001.71 1002.27 1003.06 1003.59 1004.00 1004.20 1004.43 1004.69 1004.91 1005.51 1005.98 1006.20 1006.48 1006.77 1007.13 1007.43 1007.72 1008.05 1008.32
1012.25 1011.31 1010.38 1009.42 1008.43 1007.27 1006.14 1004.95 1004.02 1003.82 1003.55 1003.37 1003.37 1003.41 1003.24 1003.09 1002.78 1002.58 1002.40 1001.97 1001.03 1000.58 1001.09 1001.21 1001.78 1002.22 1002.95 1003.73 1004.08 1004.36 1004.89 1005.28 1005.60 1005.99 1006.28 1006.49 1006.62 1006.87 1007.13 1007.40 1007.75 1007.98 1008.43
1012.21 1011.27 1010.25 1009.25 1008.24 1007.07 1005.92 1004.54 1002.91 1003.28 1003.26 1002.99 1002.92 1002.81 1002.70 1002.53 1002.27 1002.07 1002.02 1001.64 1001.22 1001.10 1000.97 1001.37 1001.89 1002.50 1003.11 1003.71 1004.08 1004.59 1005.01 1005.58 1006.08 1006.25 1006.47 1006.75 1006.77 1006.89 1007.00 1007.23 1007.40 1007.85 1008.26
1012.21 1011.29 1010.32 1009.27 1008.29 1007.26 1006.23 1004.75 1003.66 1003.34 1003.04 1002.89 1002.61 1002.33 1002.12 1002.03 1001.55 1001.66 1001.81 1001.94 1002.03 1001.79 1001.15 1001.36 1001.80 1002.43 1003.07 1003.49 1004.15 1004.87 1005.47 1005.97 1006.27 1006.41 1006.24 1006.69 1006.60 1006.64 1006.61 1006.68 1007.05 1007.12 1007.82
1012.43 1011.53 1010.55 1009.60 1008.51 1007.65 1006.62 1005.52 1004.69 1004.11 1003.75 1003.50 1003.22 1002.89 1002.70 1002.47 1002.15 1001.98 1002.09 1002.37 1002.46 1002.29 1001.98 1001.47 1002.20 1002.87 1003.69 1004.23 1004.43 1005.30 1005.57 1005.99 1005.97 1006.35 1006.26 1005.92 1005.85 1005.76 1005.78 1006.67 1007.31 1007.45 1007.62
1012.77 1011.97 1011.06 1010.11 1009.07 1008.25 1007.28 1006.34 1005.56 1004.96 1004.53 1004.20 1003.91 1003.65 1003.41 1003.25 1003.15 1002.88 1002.71 1002.83 1003.05 1003.12 1002.96 1003.07 1003.21 1003.69 1004.23 1004.35 1004.91 1005.24 1005.77 1005.73 1005.53 1005.31 1005.33 1005.15 1005.15 1005.53 1005.63 1005.99 1007.24 1007.63 1007.79
1013.19 1012.43 1011.69 1010.75 1009.85 1008.96 1008.13 1007.25 1006.40 1005.91 1005.49 1005.19 1005.01 1004.72 1004.40 1004.27 1004.25 1004.04 1003.67 1003.58 1004.00 1004.20 1004.30 1004.15 1004.48 1004.89 1005.15 1005.04 1005.11 1005.29 1005.13 1005.05 1005.03 1005.32 1005.10 1004.95 1005.33 1005.47 1005.47 1005.58 1006.68 1007.54 1007.91
1013.31 1012.75 1011.93 1011.18 1010.56 1009.79 1009.04 1008.21 1007.45 1006.91 1006.49 1006.23 1006.12 1005.86 1005.89 1005.57 1005.33 1004.97 1004.71 1004.65 1004.60 1004.86 1004.98 1005.23 1004.76 1005.37 1005.31 1005.16 1005.08 1004.73 1004.34 1004.42 1005.00 1005.40 1005.64 1005.14 1005.25 1005.25 1005.30 1005.65 1006.32 1007.05 1007.27
Wind_Speed
6 6 6 7 8 8 9 9 10 10 12 14 14 16 16 17 17 11 9 8 15 17 19 23 22 22 22 21 21 21 22 23 24 24 23 22 22 21 22 22 20 20 19
5 7 7 8 7 8 9 10 10 11 12 13 15 15 16 16 17 16 13 13 17 18 19 22 24 22 22 21 21 20 21 23 24 25 24 23 23 23 23 23 23 22 21
6 8 8 9 9 9 12 10 11 11 12 13 15 15 16 18 16 17 15 13 12 20 21 20 23 22 21 21 21 21 22 22 24 24 24 23 23 24 24 24 24 23 21
7 8 9 10 10 11 11 11 11 12 12 12 13 14 14 14 19 16 15 14 13 13 17 21 23 22 21 21 21 22 22 23 23 23 25 24 24 25 25 25 24 24 24
10 9 10 11 12 12 12 12 12 13 13 13 14 14 14 15 16 16 19 18 18 15 12 16 23 21 21 21 21 22 22 22 23 25 26 26 26 26 26 25 25 26 24
13 11 11 13 13 13 13 13 14 14 15 15 14 14 14 15 16 15 17 16 18 18 17 17 12 14 22 23 22 22 22 22 24 25 26 27 27 27 26 26 28 24 21
14 13 12 15 14 15 15 16 16 17 14 14 14 14 15 16 18 17 17 16 18 18 18 16 11 11 12 23 22 21 22 21 23 25 24 25 27 28 28 29 26 25 26
14 15 16 15 17 15 17 17 17 15 14 13 14 13 15 13 14 16 16 16 19 16 18 19 16 15 13 10 16 21 21 19 21 23 23 25 27 27 29 28 26 26 25
18 19 18 16 16 15 14 16 16 18 15 14 16 14 11 13 11 11 14 16 15 15 16 16 14 14 13 13 11 12 17 17 18 18 20 25 25 26 28 27 25 25 26
18 19 18 17 16 13 14 13 10 11 11 12 15 14 17 16 14 12 12 11 10 12 12 11 11 13 14 12 14 1 13 13 15 15 14 21 25 26 27 27 22 23 25
16 17 17 17 16 13 13 12 14 11 10 11 13 14 18 14 16 15 14 13 13 10 11 11 11 11 12 10 10 8 10 9 10 10 10 16 23 24 26 25 23 22 24
14 17 16 14 15 13 14 11 11 13 11 10 11 11 14 13 13 13 14 15 15 14 8 11 11 7 7 9 9 4 8 9 10 10 9 8 19 21 25 25 23 23 23
13 15 15 14 13 15 15 14 13 12 14 12 12 10 9 10 12 15 13 12 12 13 14 6 11 6 10 4 9 8 9 9 8 9 6 5 6 9 8 10 9 8 9
13 17 17 16 16 16 15 14 12 11 12 11 15 13 9 9 10 10 15 13 12 13 11 9 6 10 7 9 2 7 8 7 6 7 11 12 13 14 15 15 15 14 13
13 17 16 17 17 16 16 14 11 13 12 12 12 12 9 9 9 12 13 13 11 12 12 11 8 8 3 5 4 7 3 10 11 11 12 11 14 13 12 15 14 12 11
15 16 17 16 16 15 15 14 12 12 13 11 9 12 11 9 11 9 11 12 9 10 11 6 6 4 2 1 5 6 8 12 11 9 9 11 12 13 14 13 13 14 15
15 15 16 16 16 16 14 14 14 14 14 13 12 11 13 13 9 8 11 13 9 10 11 5 6 3 3 3 3 3 6 9 7 9 11 11 10 12 13 13 12 11 12
15 16 15 15 15 15 14 14 14 12 13 13 12 12 13 9 12 11 10 14 12 14 9 11 6 3 2 3 3 6 5 5 6 8 8 9 10 10 10 11 11 11 11
16 15 16 15 16 16 15 14 14 13 12 12 11 11 11 10 10 9 10 12 12 11 10 6 5 2 2 2 4 4 6 5 6 10 7 6 7 8 7 8 10 10 10
15 15 15 15 15 16 16 15 14 11 11 10 10 10 10 10 10 8 9 11 12 11 11 10 4 3 2 3 4 6 5 3 5 5 7 6 4 3 7 10 10 11 11
13 14 14 14 14 13 11 17 8 6 6 6 7 9 9 12 16 11 5 9 8 6 5 5 4 2 3 4 6 4 4 4 3 1 2 0 2 2 3 7 9 12 11
13 13 13 14 14 10 22 21 8 4 3 4 4 3 3 6 11 13 12 11 8 9 7 5 5 3 4 6 5 5 5 3 2 3 2 4 4 6 5 3 4 7 12
13 14 14 14 14 12 21 20 16 8 8 8 7 6 5 6 8 8 17 16 16 17 14 2 7 5 7 6 9 7 3 1 2 3 5 4 5 4 4 7 7 5 7
12 12 13 14 13 12 22 21 15 9 10 11 10 10 10 11 10 10 13 15 14 14 12 9 9 8 9 8 5 6 7 6 5 7 8 3 3 5 3 7 9 6 7
11 12 12 14 15 14 24 21 14 10 12 13 12 13 11 12 14 12 13 14 14 15 15 20 18 14 10 8 1 6 6 6 6 4 1 2 3 4 3 4 8 9 7
6 7 10 10 14 13 23 21 15 8 12 10 11 12 19 15 15 10 13 12 12 13 11 7 8 6 9 10 11 3 3 4 5 3 3 3 3 3 3 3 3 6 7
Wind_Direction
357 346 339 317 321 319 309 309 304 300 296 284 275 270 269 267 268 266 263 207 199 213 230 246 243 238 236 236 234 229 221 215 214 213 212 209 206 206 206 208 208 209 207
358 336 327 336 327 326 324 310 307 305 290 291 285 275 271 267 264 260 258 249 193 205 219 237 245 240 237 236 235 229 223 218 215 213 214 211 207 206 209 208 207 209 210
338 325 327 320 324 330 305 306 301 294 286 282 273 268 272 263 259 259 256 257 256 199 211 223 237 241 238 237 234 228 221 219 217 215 215 213 212 208 209 210 210 211 212
305 302 310 312 322 305 310 308 300 297 292 289 286 280 279 267 276 255 249 251 240 259 205 213 220 230 238 235 232 230 223 218 214 214 214 212 212 213 213 212 211 211 210
297 299 299 304 307 297 298 299 295 296 296 287 280 274 271 266 259 262 255 243 244 247 246 211 209 215 227 234 234 230 226 221 210 209 212 211 213 215 214 214 214 215 210
298 296 295 294 295 290 289 293 297 290 289 284 281 280 279 275 270 264 261 256 250 242 240 246 218 212 213 222 229 232 230 225 213 209 212 211 212 216 212 214 218 219 213
301 297 290 294 291 287 291 293 284 282 278 277 276 273 268 255 250 252 254 255 254 246 242 243 235 247 213 208 215 223 230 225 215 213 211 210 213 213 210 214 217 216 214
298 299 299 297 294 292 289 287 283 282 277 273 272 278 277 263 252 244 245 245 246 247 243 233 237 241 247 236 203 211 220 229 227 216 211 209 213 213 209 214 216 217 219
302 298 298 296 293 287 281 282 281 280 280 276 271 269 271 262 276 260 235 234 242 239 239 248 239 232 239 245 249 196 205 217 227 229 214 210 212 211 211 213 217 217 220
301 297 295 297 293 292 294 289 287 300 296 288 286 261 251 268 274 275 271 268 230 253 259 257 241 229 235 228 231 237 185 204 219 225 231 218 206 208 212 212 218 221 223
295 305 300 297 300 303 297 296 283 278 281 283 276 279 280 251 234 249 261 267 273 231 232 215 242 207 204 226 214 214 182 205 221 215 220 218 202 206 210 211 216 228 229
312 303 306 315 299 291 285 288 284 274 272 271 277 276 271 268 259 240 249 249 260 271 260 220 229 232 239 197 228 93 184 205 227 213 217 221 203 204 210 216 224 235 237
306 306 312 302 301 297 292 288 285 282 266 268 267 267 268 276 271 283 268 262 265 246 248 263 264 254 258 259 237 196 181 216 225 234 202 215 206 172 181 204 217 210 173
302 307 301 300 295 292 291 288 281 273 267 261 260 255 252 261 275 270 281 266 252 255 260 234 258 250 241 233 283 157 209 188 178 179 142 132 123 121 119 115 116 119 131
307 300 300 294 291 287 282 278 274 271 267 261 263 251 244 255 256 261 259 278 277 259 247 241 234 231 266 260 221 230 163 144 148 122 117 124 123 128 137 136 136 134 134
303 301 298 295 294 289 286 279 272 267 265 261 258 254 244 245 246 238 254 250 256 272 267 286 222 200 175 219 187 214 162 147 147 156 152 144 139 146 141 142 146 159 164
310 304 301 303 298 294 288 282 273 266 257 255 251 254 249 245 242 241 258 247 233 248 251 253 249 159 171 161 142 74 155 155 131 143 139 137 150 148 141 142 145 152 155
313 310 309 301 298 296 289 280 275 268 257 253 249 247 252 245 238 237 245 257 240 238 250 250 234 170 100 82 130 125 101 83 131 151 158 157 163 156 149 148 149 158 152
316 314 313 308 307 303 298 289 276 270 263 251 249 250 250 249 247 237 240 248 249 233 244 248 212 166 102 124 90 82 81 77 105 111 113 132 149 149 166 167 165 165 158
319 320 319 316 313 310 305 295 275 262 256 248 240 246 248 252 254 243 254 268 253 231 228 240 240 157 128 123 127 136 120 96 103 88 70 66 71 178 210 199 187 180 183
327 327 325 326 325 324 325 323 339 243 282 249 241 239 243 248 253 254 250 261 266 260 236 204 174 145 139 147 161 155 120 110 77 85 98 54 105 196 178 200 202 194 185
333 333 334 336 335 333 340 354 3 333 319 343 329 323 297 306 254 235 235 252 316 299 272 217 187 172 156 154 123 121 101 114 116 205 184 191 190 208 209 191 109 191 182
335 340 342 345 341 353 359 4 17 31 41 35 28 23 33 27 30 62 86 79 61 53 50 58 91 91 92 105 115 116 120 103 149 195 205 175 202 199 160 124 102 118 154
345 343 346 349 353 3 7 10 11 34 43 43 42 45 53 52 46 69 82 78 67 54 52 65 77 86 102 97 101 138 164 190 198 182 208 159 187 160 180 132 134 130 132
350 347 354 356 2 7 9 12 15 25 43 43 45 41 53 59 48 56 76 76 78 78 66 81 79 71 74 76 99 171 192 204 126 148 270 159 186 177 214 240 133 144 145
335 338 343 353 6 17 14 16 19 28 40 38 39 40 42 50 39 44 83 80 78 87 94 94 90 96 83 58 29 48 340 127 138 177 102 274 176 228 213 120 115 160 190